| time (UTC) | temp C | wind direction | speed KPH | gust KPH | rain 1hr cm | rain 24hr cm | rain mn cm | humidity % | barometer mb |
| 20260906225408 | 22 | 121 | 4.8 | 12.9 | 0.00 | 0.13 | 0.00 | 46 | 1022.8 |
| 20260906224507 | 23 | 121 | 6.4 | 14.5 | 0.00 | 0.13 | 0.00 | 45 | 1022.8 |
| 20260906223608 | 23 | 94 | 4.8 | 14.5 | 0.00 | 0.13 | 0.00 | 46 | 1022.8 |
| 20260906222707 | 23 | 103 | 4.8 | 17.7 | 0.00 | 0.13 | 0.00 | 45 | 1022.8 |
| 20260906221808 | 23 | 103 | 4.8 | 14.5 | 0.00 | 0.13 | 0.00 | 44 | 1022.8 |
| 20260906220907 | 23 | 98 | 4.8 | 14.5 | 0.00 | 0.13 | 0.00 | 43 | 1022.8 |
| 20260906220021 | 23 | 94 | 3.2 | 9.7 | 0.00 | 0.13 | 0.00 | 45 | 1022.8 |
| 20260906215408 | 23 | 111 | 4.8 | 12.9 | 0.00 | 0.13 | 0.00 | 45 | 1022.8 |
| 20260906214507 | 23 | 47 | 3.2 | 9.7 | 0.00 | 0.13 | 0.00 | 46 | 1022.8 |
| 20260906213608 | 23 | 96 | 3.2 | 14.5 | 0.00 | 0.13 | 0.00 | 45 | 1022.8 |
| 20260906212728 | 23 | 143 | 3.2 | 14.5 | 0.00 | 0.13 | 0.00 | 44 | 1022.8 |
| 20260906211808 | 23 | 104 | 6.4 | 14.5 | 0.00 | 0.13 | 0.00 | 46 | 1022.8 |
| 20260906210909 | 23 | 82 | 4.8 | 12.9 | 0.00 | 0.13 | 0.00 | 44 | 1022.8 |
| 20260906210008 | 23 | 105 | 3.2 | 12.9 | 0.00 | 0.13 | 0.00 | 45 | 1022.8 |
| 20260906205408 | 23 | 94 | 1.6 | 6.4 | 0.00 | 0.13 | 0.00 | 46 | 1022.9 |
| 20260906204507 | 23 | 108 | 3.2 | 9.7 | 0.00 | 0.13 | 0.00 | 45 | 1022.9 |
| 20260906203607 | 23 | 110 | 3.2 | 14.5 | 0.00 | 0.13 | 0.00 | 45 | 1022.9 |
| 20260906202707 | 23 | 132 | 1.6 | 8.0 | 0.00 | 0.13 | 0.00 | 47 | 1022.9 |
| 20260906201829 | 23 | 191 | 1.6 | 8.0 | 0.00 | 0.13 | 0.00 | 44 | 1022.9 |
| 20260906200907 | 25 | 118 | 4.8 | 11.3 | 0.00 | 0.13 | 0.00 | 43 | 1022.9 |
| 20260906200008 | 26 | 141 | 3.2 | 9.7 | 0.00 | 0.13 | 0.00 | 37 | 1022.9 |
| 20260906195407 | 25 | 107 | 4.8 | 12.9 | 0.00 | 0.13 | 0.00 | 38 | 1024.1 |
| 20260906194506 | 26 | 93 | 4.8 | 12.9 | 0.00 | 0.13 | 0.00 | 38 | 1024.1 |
| 20260906193608 | 26 | 105 | 4.8 | 11.3 | 0.00 | 0.13 | 0.00 | 34 | 1024.1 |
| 20260906192728 | 27 | 109 | 4.8 | 12.9 | 0.00 | 0.13 | 0.00 | 34 | 1024.1 |
| 20260906191828 | 26 | 115 | 4.8 | 12.9 | 0.00 | 0.13 | 0.00 | 37 | 1024.1 |
| 20260906190927 | 27 | 100 | 4.8 | 11.3 | 0.00 | 0.13 | 0.00 | 33 | 1024.1 |
| 20260906190007 | 26 | 100 | 3.2 | 19.3 | 0.00 | 0.13 | 0.00 | 38 | 1024.1 |
| 20260906185407 | 26 | 109 | 3.2 | 19.3 | 0.00 | 0.13 | 0.00 | 37 | 1024.1 |
| 20260906184507 | 27 | 100 | 3.2 | 14.5 | 0.00 | 0.13 | 0.00 | 37 | 1024.1 |
| 20260906183607 | 26 | 105 | 3.2 | 12.9 | 0.00 | 0.13 | 0.00 | 39 | 1024.1 |
| 20260906182706 | 26 | 119 | 8.0 | 19.3 | 0.00 | 0.13 | 0.00 | 33 | 1024.1 |
| 20260906181807 | 26 | 103 | 3.2 | 11.3 | 0.00 | 0.13 | 0.00 | 35 | 1024.1 |
| 20260906180906 | 26 | 113 | 4.8 | 17.7 | 0.00 | 0.13 | 0.00 | 35 | 1024.1 |
| 20260906180007 | 26 | 118 | 4.8 | 14.5 | 0.00 | 0.13 | 0.00 | 36 | 1025.1 |
| 20260906175407 | 26 | 122 | 4.8 | 17.7 | 0.00 | 0.13 | 0.00 | 33 | 1025.1 |
| 20260906174506 | 26 | 118 | 4.8 | 12.9 | 0.00 | 0.13 | 0.00 | 33 | 1025.1 |
| 20260906173607 | 26 | 118 | 3.2 | 12.9 | 0.00 | 0.13 | 0.00 | 34 | 1025.1 |
| 20260906172706 | 25 | 121 | 1.6 | 6.4 | 0.00 | 0.13 | 0.00 | 32 | 1025.1 |
| 20260906171807 | 25 | 110 | 3.2 | 11.3 | 0.00 | 0.13 | 0.00 | 38 | 1025.1 |
| 20260906170906 | 25 | 101 | 1.6 | 9.7 | 0.00 | 0.13 | 0.00 | 36 | 1025.1 |
| 20260906170013 | 24 | 70 | 0.0 | 4.8 | 0.00 | 0.13 | 0.00 | 34 | 1025.1 |
| 20260906165407 | 24 | 86 | 1.6 | 6.4 | 0.00 | 0.13 | 0.00 | 37 | 1026.1 |
| 20260906164506 | 23 | 129 | 0.0 | 6.4 | 0.00 | 0.13 | 0.00 | 38 | 1026.1 |
| 20260906163607 | 23 | 115 | 1.6 | 8.0 | 0.00 | 0.13 | 0.00 | 40 | 1026.1 |
| 20260906162706 | 22 | 103 | 1.6 | 11.3 | 0.00 | 0.13 | 0.00 | 42 | 1026.1 |
| 20260906161807 | 22 | 85 | 0.0 | 3.2 | 0.00 | 0.13 | 0.00 | 45 | 1026.1 |
| 20260906160906 | 21 | 89 | 0.0 | 6.4 | 0.00 | 0.13 | 0.00 | 43 | 1026.1 |
| 20260906160007 | 19 | 0 | 0.0 | 0.0 | 0.00 | 0.13 | 0.00 | 48 | 1026.1 |
| 20260906155407 | 19 | 0 | 0.0 | 0.0 | 0.00 | 0.13 | 0.00 | 54 | 1026.1 |
| 20260906154506 | 18 | 172 | 0.0 | 3.2 | 0.00 | 0.13 | 0.00 | 56 | 1026.1 |
| 20260906153606 | 16 | 0 | 0.0 | 0.0 | 0.00 | 0.13 | 0.00 | 77 | 1026.1 |
| 20260906152707 | 15 | 0 | 0.0 | 0.0 | 0.00 | 0.13 | 0.00 | 78 | 1026.1 |
| 20260906151807 | 12 | 0 | 0.0 | 0.0 | 0.00 | 0.13 | 0.00 | 90 | 1026.1 |
| 20260906150906 | 11 | 0 | 0.0 | 0.0 | 0.00 | 0.13 | 0.00 | 90 | 1026.1 |
| 20260906150008 | 11 | 0 | 0.0 | 0.0 | 0.00 | 0.13 | 0.00 | 89 | 1026.1 |
| 20260906145407 | 11 | 0 | 0.0 | 0.0 | 0.00 | 0.13 | 0.00 | 90 | 1026.1 |
| 20260906144505 | 10 | 0 | 0.0 | 0.0 | 0.00 | 0.13 | 0.00 | 90 | 1026.1 |
| 20260906143606 | 10 | 0 | 0.0 | 0.0 | 0.00 | 0.13 | 0.00 | 90 | 1026.1 |
| 20260906142705 | 10 | 0 | 0.0 | 0.0 | 0.00 | 0.13 | 0.00 | 90 | 1026.1 |
| 20260906141806 | 9 | 0 | 0.0 | 0.0 | 0.00 | 0.13 | 0.00 | 91 | 1026.1 |
| 20260906140905 | 9 | 0 | 0.0 | 0.0 | 0.00 | 0.13 | 0.00 | 90 | 1026.1 |
| 20260906140007 | 8 | 0 | 0.0 | 0.0 | 0.00 | 0.13 | 0.00 | 91 | 1025.9 |
| 20260906135406 | 8 | 0 | 0.0 | 0.0 | 0.00 | 0.13 | 0.00 | 91 | 1025.9 |
| 20260906134505 | 8 | 0 | 0.0 | 0.0 | 0.00 | 0.13 | 0.00 | 91 | 1025.9 |
| 20260906133627 | 8 | 0 | 0.0 | 0.0 | 0.00 | 0.13 | 0.00 | 90 | 1025.9 |
| 20260906132705 | 8 | 0 | 0.0 | 0.0 | 0.00 | 0.13 | 0.00 | 90 | 1025.9 |
| 20260906131806 | 8 | 0 | 0.0 | 0.0 | 0.00 | 0.13 | 0.00 | 90 | 1025.9 |
| 20260906130905 | 8 | 0 | 0.0 | 0.0 | 0.00 | 0.13 | 0.00 | 90 | 1025.9 |
| 20260906130019 | 8 | 0 | 0.0 | 0.0 | 0.00 | 0.13 | 0.00 | 90 | 1025.9 |
| 20260906125406 | 8 | 0 | 0.0 | 0.0 | 0.00 | 0.13 | 0.00 | 90 | 1025.9 |
| 20260906124526 | 8 | 0 | 0.0 | 0.0 | 0.00 | 0.13 | 0.00 | 90 | 1025.9 |
| 20260906123627 | 8 | 0 | 0.0 | 0.0 | 0.00 | 0.13 | 0.00 | 90 | 1025.9 |
| 20260906122705 | 8 | 0 | 0.0 | 0.0 | 0.00 | 0.13 | 0.00 | 90 | 1025.9 |
| 20260906121806 | 8 | 0 | 0.0 | 0.0 | 0.00 | 0.13 | 0.00 | 90 | 1025.9 |
| 20260906120905 | 8 | 0 | 0.0 | 0.0 | 0.00 | 0.13 | 0.00 | 90 | 1025.9 |
| 20260906120007 | 8 | 0 | 0.0 | 0.0 | 0.00 | 0.13 | 0.00 | 90 | 1025.9 |
| 20260906115406 | 8 | 0 | 0.0 | 0.0 | 0.00 | 0.13 | 0.00 | 90 | 1025.9 |
| 20260906114505 | 8 | 0 | 0.0 | 0.0 | 0.00 | 0.13 | 0.00 | 89 | 1025.9 |
| 20260906113627 | 8 | 0 | 0.0 | 0.0 | 0.00 | 0.13 | 0.00 | 89 | 1025.9 |
| 20260906112705 | 8 | 0 | 0.0 | 0.0 | 0.00 | 0.13 | 0.00 | 89 | 1025.9 |
| 20260906111809 | 8 | 0 | 0.0 | 0.0 | 0.00 | 0.13 | 0.00 | 89 | 1025.9 |
| 20260906110905 | 8 | 0 | 0.0 | 0.0 | 0.00 | 0.13 | 0.00 | 89 | 1025.9 |
| 20260906110027 | 8 | 0 | 0.0 | 0.0 | 0.00 | 0.13 | 0.00 | 89 | 1025.9 |
| 20260906105407 | 8 | 0 | 0.0 | 0.0 | 0.00 | 0.13 | 0.00 | 88 | 1025.9 |
| 20260906104506 | 8 | 0 | 0.0 | 0.0 | 0.00 | 0.13 | 0.00 | 88 | 1025.9 |
| 20260906103606 | 8 | 0 | 0.0 | 0.0 | 0.00 | 0.13 | 0.00 | 88 | 1025.9 |
| 20260906102706 | 9 | 0 | 0.0 | 0.0 | 0.00 | 0.13 | 0.00 | 88 | 1025.9 |
| 20260906101826 | 9 | 0 | 0.0 | 0.0 | 0.00 | 0.13 | 0.00 | 88 | 1025.9 |
| 20260906100904 | 9 | 0 | 0.0 | 0.0 | 0.00 | 0.13 | 0.00 | 87 | 1025.9 |
| 20260906095404 | 9 | 0 | 0.0 | 0.0 | 0.00 | 0.13 | 0.00 | 87 | 1024.1 |
| 20260906094504 | 9 | 0 | 0.0 | 0.0 | 0.00 | 0.13 | 0.00 | 87 | 1024.1 |
| 20260906093627 | 9 | 0 | 0.0 | 0.0 | 0.00 | 0.13 | 0.00 | 87 | 1024.1 |
| 20260906092705 | 10 | 0 | 0.0 | 0.0 | 0.00 | 0.13 | 0.00 | 87 | 1024.1 |
| 20260906091805 | 10 | 0 | 0.0 | 0.0 | 0.00 | 0.13 | 0.00 | 87 | 1024.1 |
| 20260906090906 | 10 | 0 | 0.0 | 0.0 | 0.00 | 0.13 | 0.00 | 87 | 1024.1 |
| 20260906090006 | 10 | 0 | 0.0 | 0.0 | 0.00 | 0.13 | 0.00 | 88 | 1024.1 |
| 20260906085404 | 10 | 0 | 0.0 | 0.0 | 0.00 | 0.13 | 0.00 | 88 | 1024.1 |
| 20260906084526 | 10 | 0 | 0.0 | 0.0 | 0.00 | 0.13 | 0.00 | 87 | 1024.1 |
| 20260906083604 | 10 | 0 | 0.0 | 0.0 | 0.00 | 0.13 | 0.00 | 88 | 1024.1 |
| 20260906082706 | 10 | 0 | 0.0 | 0.0 | 0.00 | 0.13 | 0.00 | 87 | 1024.1 |
| 20260906081804 | 10 | 0 | 0.0 | 0.0 | 0.00 | 0.13 | 0.00 | 87 | 1024.1 |
| 20260906080905 | 11 | 0 | 0.0 | 0.0 | 0.00 | 0.13 | 0.00 | 87 | 1024.1 |
| 20260906080005 | 11 | 0 | 0.0 | 0.0 | 0.00 | 0.13 | 0.00 | 87 | 1024.1 |
| 20260906075407 | 11 | 0 | 0.0 | 0.0 | 0.00 | 0.13 | 0.00 | 87 | 1024.1 |
| 20260906074526 | 11 | 0 | 0.0 | 0.0 | 0.00 | 0.13 | 0.00 | 87 | 1024.1 |
| 20260906073604 | 11 | 0 | 0.0 | 0.0 | 0.00 | 0.13 | 0.00 | 87 | 1024.1 |
| 20260906072704 | 11 | 0 | 0.0 | 0.0 | 0.00 | 0.13 | 0.00 | 87 | 1024.1 |
| 20260906071804 | 11 | 0 | 0.0 | 0.0 | 0.00 | 0.13 | 0.00 | 87 | 1024.1 |
| 20260906070905 | 11 | 0 | 0.0 | 0.0 | 0.00 | 0.13 | 0.00 | 86 | 1024.1 |
| 20260906070007 | 11 | 0 | 0.0 | 0.0 | 0.00 | 0.13 | 0.00 | 86 | 1024.1 |
| 20260906065404 | 11 | 0 | 0.0 | 0.0 | 0.00 | 0.13 | 0.00 | 86 | 1024.1 |
| 20260906064504 | 11 | 0 | 0.0 | 0.0 | 0.00 | 0.13 | 0.00 | 86 | 1024.1 |
| 20260906063625 | 11 | 0 | 0.0 | 0.0 | 0.00 | 0.13 | 0.00 | 87 | 1024.1 |
| 20260906062705 | 11 | 0 | 0.0 | 0.0 | 0.00 | 0.13 | 0.00 | 87 | 1024.1 |
| 20260906061804 | 12 | 0 | 0.0 | 0.0 | 0.00 | 0.13 | 0.00 | 86 | 1024.1 |
| 20260906060905 | 12 | 0 | 0.0 | 0.0 | 0.00 | 0.13 | 0.00 | 87 | 1024.1 |
| 20260906060010 | 12 | 0 | 0.0 | 0.0 | 0.00 | 0.13 | 0.00 | 87 | 1024.1 |
| 20260906055404 | 12 | 57 | 0.0 | 1.6 | 0.00 | 0.13 | 0.13 | 87 | 1024.1 |
| 20260906054505 | 12 | 57 | 0.0 | 3.2 | 0.00 | 0.13 | 0.13 | 88 | 1024.1 |
| 20260906053624 | 12 | 0 | 0.0 | 0.0 | 0.00 | 0.13 | 0.13 | 89 | 1024.1 |
| 20260906052705 | 12 | 0 | 0.0 | 0.0 | 0.00 | 0.13 | 0.13 | 89 | 1024.1 |
| 20260906051803 | 12 | 65 | 0.0 | 6.4 | 0.00 | 0.13 | 0.13 | 89 | 1024.1 |
| 20260906050905 | 12 | 257 | 0.0 | 3.2 | 0.00 | 0.13 | 0.13 | 89 | 1024.1 |
| 20260906050004 | 12 | 0 | 0.0 | 0.0 | 0.00 | 0.13 | 0.13 | 89 | 1024.1 |
| 20260906045403 | 12 | 0 | 0.0 | 0.0 | 0.00 | 0.13 | 0.13 | 89 | 1024.1 |
| 20260906044526 | 12 | 0 | 0.0 | 0.0 | 0.00 | 0.13 | 0.13 | 89 | 1024.1 |
| 20260906043624 | 12 | 0 | 0.0 | 0.0 | 0.00 | 0.13 | 0.13 | 90 | 1024.1 |
| 20260906042705 | 12 | 0 | 0.0 | 0.0 | 0.00 | 0.13 | 0.13 | 89 | 1024.1 |
| 20260906041803 | 12 | 0 | 0.0 | 0.0 | 0.00 | 0.13 | 0.13 | 89 | 1024.1 |
| 20260906040925 | 12 | 0 | 0.0 | 0.0 | 0.00 | 0.13 | 0.13 | 89 | 1024.1 |
| 20260906040010 | 12 | 0 | 0.0 | 0.0 | 0.00 | 0.13 | 0.13 | 89 | 1024.1 |
| 20260906035409 | 12 | 0 | 0.0 | 0.0 | 0.00 | 0.13 | 0.13 | 89 | 1024.1 |
| 20260906034529 | 12 | 258 | 0.0 | 1.6 | 0.00 | 0.13 | 0.13 | 89 | 1024.1 |
| 20260906033609 | 12 | 209 | 0.0 | 6.4 | 0.00 | 0.13 | 0.13 | 89 | 1024.1 |
| 20260906032708 | 12 | 178 | 0.0 | 3.2 | 0.00 | 0.13 | 0.13 | 89 | 1024.1 |
| 20260906031809 | 12 | 0 | 0.0 | 0.0 | 0.00 | 0.13 | 0.13 | 88 | 1024.1 |
| 20260906030908 | 12 | 0 | 0.0 | 0.0 | 0.03 | 0.13 | 0.13 | 87 | 1024.1 |
| 20260906030010 | 12 | 0 | 0.0 | 0.0 | 0.03 | 0.13 | 0.13 | 87 | 1024.1 |
| 20260906025409 | 12 | 0 | 0.0 | 0.0 | 0.03 | 0.13 | 0.13 | 86 | 1024.1 |
| 20260906024508 | 12 | 0 | 0.0 | 0.0 | 0.03 | 0.13 | 0.13 | 85 | 1024.1 |
| 20260906023609 | 12 | 0 | 0.0 | 0.0 | 0.03 | 0.13 | 0.13 | 85 | 1024.1 |
| 20260906022729 | 12 | 0 | 0.0 | 0.0 | 0.03 | 0.13 | 0.13 | 84 | 1024.1 |
| 20260906021811 | 13 | 0 | 0.0 | 0.0 | 0.03 | 0.13 | 0.13 | 84 | 1024.1 |
| 20260906020929 | 13 | 0 | 0.0 | 0.0 | 0.00 | 0.10 | 0.10 | 84 | 1024.1 |
| 20260906020009 | 13 | 0 | 0.0 | 0.0 | 0.10 | 0.10 | 0.10 | 82 | 1024.1 |
| 20260906015409 | 14 | 0 | 0.0 | 0.0 | 0.10 | 0.10 | 0.10 | 81 | 1024.1 |
| 20260906014508 | 15 | 0 | 0.0 | 0.0 | 0.10 | 0.10 | 0.10 | 79 | 1024.1 |
| 20260906013609 | 15 | 0 | 0.0 | 0.0 | 0.10 | 0.10 | 0.10 | 78 | 1024.1 |
| 20260906012729 | 16 | 0 | 0.0 | 0.0 | 0.10 | 0.10 | 0.10 | 76 | 1024.1 |
| 20260906011809 | 16 | 0 | 0.0 | 0.0 | 0.10 | 0.10 | 0.10 | 73 | 1024.1 |
| 20260906010908 | 18 | 0 | 0.0 | 0.0 | 0.10 | 0.10 | 0.10 | 69 | 1024.1 |
| 20260906010009 | 20 | 274 | 0.0 | 3.2 | 0.00 | 0.00 | 0.00 | 55 | 1024.1 |
| 20260906005414 | 20 | 280 | 1.6 | 4.8 | 0.00 | 0.00 | 0.00 | 47 | 1024.1 |
| 20260906004513 | 20 | 281 | 1.6 | 3.2 | 0.00 | 0.00 | 0.00 | 46 | 1024.1 |
| 20260906003614 | 20 | 272 | 0.0 | 3.2 | 0.00 | 0.00 | 0.00 | 47 | 1024.1 |
| 20260906002734 | 20 | 272 | 1.6 | 9.7 | 0.00 | 0.00 | 0.00 | 42 | 1024.1 |
| 20260906001813 | 20 | 266 | 1.6 | 6.4 | 0.00 | 0.00 | 0.00 | 43 | 1024.1 |
| 20260906000933 | 20 | 260 | 3.2 | 11.3 | 0.00 | 0.00 | 0.00 | 42 | 1024.1 |
| 20260906000014 | 21 | 275 | 3.2 | 11.3 | 0.00 | 0.00 | 0.00 | 42 | 1024.1 |
| 20260905235413 | 21 | 282 | 3.2 | 11.3 | 0.00 | 0.00 | 0.00 | 42 | 1024.1 |
| 20260905234512 | 21 | 275 | 1.6 | 8.0 | 0.00 | 0.00 | 0.00 | 44 | 1024.1 |
| 20260905233614 | 21 | 259 | 1.6 | 3.2 | 0.00 | 0.00 | 0.00 | 42 | 1024.1 |
| 20260905232712 | 21 | 297 | 1.6 | 4.8 | 0.00 | 0.00 | 0.00 | 36 | 1024.1 |
| 20260905231817 | 22 | 13 | 1.6 | 8.0 | 0.00 | 0.00 | 0.00 | 37 | 1024.1 |
| 20260905230912 | 22 | 264 | 3.2 | 8.0 | 0.00 | 0.00 | 0.00 | 35 | 1024.1 |
| 20260905230014 | 22 | 254 | 3.2 | 12.9 | 0.00 | 0.00 | 0.00 | 40 | 1024.1 |